Location: College Park
(38.9810°N, 76.9370°W)
Time: 21:27:51
(UTC-05:00)

N. Korean satellite - Pass Details

Date: 10 January 2018
Orbit: 458 x 515 km, 97.2° (Epoch: 20 January)

Event Time Altitude Azimuth Distance (km) Brightness Sun altitude
Rises 06:03:46 0° 28° (NNE) 2,504 10.3 -15.7°
Reaches altitude 10° 06:06:16 10° 47° (NE) 1,616 9.6 -15.3°
Maximum altitude 06:08:48 19° 94° (E) 1,157 9.5 -14.8°
Drops below altitude 10° 06:11:19 10° 142° (SE) 1,598 10.0 -14.3°
Sets 06:13:46 0° 161° (SSE) 2,465 10.7 -13.9°
